Location: Albany
(35.0000°S, 118.0000°E)
Time: 02:38:14
(UTC-04:00)

Cosmos 1626 - Visible Passes

Search period start: 03 August 2015 00:00
Search period end: 13 August 2015 00:00
Orbit: 506 x 508 km, 82.5° (Epoch: 02 August)

Date Brightness Start Highest point End Pass type
(mag) Time Alt. Az. Time Alt. Az. Time Alt. Az.
03 Aug 5.6 06:12:00 10° WSW 06:13:45 12° W 06:15:18 10° WNW visible
03 Aug 5.5 16:46:23 10° ENE 16:48:16 14° E 16:50:20 10° SE visible
03 Aug 3.0 18:20:13 10° NW 18:23:35 29° WSW 18:26:57 10° SSW visible
04 Aug 5.3 05:53:34 10° SW 05:56:08 17° W 05:58:31 10° NW visible
04 Aug 5.7 16:30:22 10° E 16:30:39 10° E 16:31:10 10° E visible
04 Aug 2.6 18:02:15 10° NNW 18:05:51 39° W 18:09:28 10° S visible
05 Aug 2.2 17:44:24 10° NNW 17:48:07 53° W 17:51:54 10° S visible
06 Aug 2.0 17:26:38 10° N 17:30:25 75° W 17:34:17 10° S visible
07 Aug 2.2 17:08:56 10° N 17:12:44 79° E 17:16:35 10° S visible
08 Aug 2.8 16:54:47 55° ENE 16:55:03 56° E 16:58:50 10° SSE visible
09 Aug 4.6 16:40:01 17° SSE 16:40:01 17° SSE 16:41:01 10° SSE visible
